Regional Weather Roundup
Issued by NWS State College, PA

Home | Current Version | Previous Version | Graphics & Text | Print | Product List | Glossary Off
Versions: 1 2 3 4 5 6 7 8 9 10 11 12 13 14 15 16 17 18 19 20 21 22 23 24 25 26 27 28 29 30 31 32 33 34 35 36 37 38 39 40 41 42 43 44 45 46 47 48 49 50

104
ASUS41 KCTP 182210
RWRCTP

REGIONAL WEATHER ROUNDUP
NATIONAL WEATHER SERVICE STATE COLLEGE PA
500 PM EST WED JAN 18 2017

Note: "fair" indicates few or no clouds below 12,000 feet with no
significant weather and/or obstructions to visibility.

* = STATION THAT DOES NOT REPORT PRECIPITATION /E.G. RAIN...SNOW...ETC/
    THUNDER OR FOG.

PAZ002>004-007>009-013>016-020>023-029>032-182300-
WESTERN PENNSYLVANIA

CITY           SKY/WX    TMP DP  RH WIND       PRES   REMARKS
ERIE           CLOUDY    37  34  89 W10G23    30.07R FOG
MEADVILLE      CLOUDY    36  34  92 W5        30.05R FOG
FRANKLIN*        N/A     36  32  87 W8        30.07R
NEW CASTLE     CLOUDY    38  36  92 SW5       30.09R
BEAVER COUNTY  CLOUDY    37  34  87 W8        30.08R
BUTLER*        CLOUDY    37  34  87 W8        30.10S
PITTSBURGH INT CLOUDY    40  35  83 SW6       30.08S
PITTSBURGH     CLOUDY    39  31  72 W7        30.08R
INDIANA*       CLOUDY    37  37 100 W8        30.09S
LATROBE        CLOUDY    39  36  87 W7        30.10R
WASHINGTON CO* CLOUDY    39  32  75 W5        30.10S
$$

PAZ004>006-010>012-017>019-024>028-033>037-041-042-045-046-049>053-182300-
CENTRAL PENNSYLVANIA

CITY           SKY/WX    TMP DP  RH WIND       PRES   REMARKS
BRADFORD       CLOUDY    34  34 100 W6        30.00R
DUBOIS         CLOUDY    35  33  92 W9        30.02S FOG
CLEARFIELD     CLOUDY    38  35  89 W9        30.03S
JOHNSTOWN      CLOUDY    35  34  96 W15       30.02R
ALTOONA        CLOUDY    40  34  79 NW12      30.03S
STATE COLLEGE  CLOUDY    39  34  81 W9        30.03R
WILLIAMSPORT   CLOUDY    45  37  73 W9        30.00R
SELINSGROVE    CLOUDY    45  39  79 NW8       30.02R
FT INDIANTOWN  CLOUDY    47  41  81 N7        30.00R
CAPITAL CITY   CLOUDY    50  36  58 NW12      30.01R
HARRISBURG     CLOUDY    49  39  68 NW10      30.00R
YORK           CLOUDY    49  38  65 NW14      30.00R
$$

PAZ038>040-043-044-047-048-054-055-060>062-067>071-182300-
EASTERN PENNSYLVANIA

CITY           SKY/WX    TMP DP  RH WIND       PRES   REMARKS
SCRANTON       CLOUDY    40  39  97 CALM      30.00R FOG
MOUNT POCONO   CLOUDY    36  33  89 NW9       29.95R
ALLENTOWN      CLOUDY    43  38  82 CALM      30.00R
QUAKERTOWN*    CLOUDY    41  39  93 N3        30.00R
READING        CLOUDY    47  37  68 NW12      30.00R
LANCASTER      CLOUDY    48  41  76 N8        30.00R
COATESVILLE    CLOUDY    46  39  76 N13G18    30.00R
POTTSTOWN      CLOUDY    46  38  73 N8        30.00R
BLUE BELL      CLOUDY    43  39  87 N3        29.98R
DOYLESTOWN     CLOUDY    44  39  82 N8        29.98R
WILLOW GROVE   NOT AVBL
NORTH PHILA    CLOUDY    46  40  79 N7        30.01R
PHILADELPHIA   CLOUDY    47  40  76 N8        30.00R
$$




USA.gov is the U.S. government's official web portal to all federal, state and local government web resources and services.